Flag for U.S.A. Weather past 2 weeks in Pasadena, Texas, U.S.A.

Now
61 °F

Passing clouds.


Feels Like: 61 °F
Forecast: 58 / 78 °F
Wind: 2 mph from Northeast

Location: Houston / Ellington


UV Index: 5 (Moderate)

Visibility: 10 mi


Pressure: 30.12 "Hg

Humidity: 83%

Dew point: 55 °F

Location of PasadenaLocation

Historic Weather in Pasadena

°F

Pasadena temperature yesterday

Maximum temperature yesterday: 72 °F (at 2:50 PM)
Minimum temperature yesterday: 61 °F (at 12:50 AM)
Average temperature yesterday: 64 °F

Past Weeks' High & Low Weather Summary

 TemperatureHumidityPressure
High82 °F (Apr 11, 2:50 PM)100% (Apr 3, 3:50 PM)30.32 "Hg (Apr 3, 3:50 PM)
Low43 °F (Apr 15, 6:50 AM)25% (Apr 8, 7:50 PM)29.64 "Hg (Apr 6, 3:50 PM)
Average66 °F69%30.01 "Hg
* Reported Apr 3 2:50 AM — Apr 18 2:50 AM, Pasadena, Weather by CustomWeather, © 2014

Note: Actual official high and low records may vary slightly from our data, if they occured in-between our weather recording intervals... More about our weather records

Advertising

Historic Weather Conditions — Data for Previous 24 hours

 ConditionsComfort  
Time TempWeatherWind HumidityBarometerVisibility
2:50 AM
Apr 18
61 °FPassing clouds.2 mph83%30.12 "Hg10 mi
1:50 AM63 °FPassing clouds.3 mph77%30.14 "Hg10 mi
12:50 AM63 °FPassing clouds.5 mph77%30.15 "Hg10 mi
11:50 PM
Apr 17
63 °FPassing clouds.3 mph77%30.16 "Hg10 mi
10:50 PM63 °FPartly cloudy.3 mph83%30.16 "Hg10 mi
9:50 PM64 °FOvercast.5 mph78%30.16 "Hg10 mi
8:50 PM64 °FOvercast.6 mph78%30.14 "Hg10 mi
7:50 PM64 °FOvercast.12 mph78%30.12 "Hg10 mi
5:50 PM68 °FPartly sunny.7 mph69%30.10 "Hg10 mi
4:50 PM70 °FBroken clouds.10 mph69%30.09 "Hg10 mi
3:50 PM72 °FBroken clouds.9 mph65%30.09 "Hg10 mi
2:50 PM72 °FPartly sunny.10 mph65%30.11 "Hg10 mi
1:50 PM70 °FPartly sunny.12 mph69%30.12 "Hg8 mi
12:50 PM70 °FPartly sunny.13 mph73%30.12 "Hg8 mi
11:50 AM68 °FPartly sunny.8 mph83%30.13 "Hg8 mi
10:50 AM64 °FPartly sunny.9 mph94%30.12 "Hg8 mi
9:50 AM61 °FBroken clouds.12 mph88%30.06 "Hg7 mi
8:50 AM61 °FThunderstorms. Broken clouds.10 mph88%30.08 "Hg7 mi
7:50 AM61 °FThunderstorms. Overcast.8 mph88%30.07 "Hg7 mi
6:50 AM61 °FMostly cloudy.5 mph83%30.07 "Hg10 mi
5:50 AM61 °FPartly cloudy.6 mph83%30.06 "Hg10 mi
Weather by CustomWeather, © 2014

See weather overview